timestamp,surface_pressure_avg,surface_temp_avg,battery_voltage,lat,long
2022-11-09 00:09:00+00:00,366.0896,11.3,12.65,47.84626,-54.09684
2022-11-09 00:19:00+00:00,367.3495,11.3,12.65,47.84626,-54.09684
2022-11-09 00:29:00+00:00,363.7596,11.3,12.65,47.84626,-54.09684
2022-11-09 00:39:00+00:00,360.3896,11.3,12.65,47.84626,-54.09684
2022-11-09 00:49:00+00:00,357.56300000000016,11.3,12.65,47.84626,-54.09684
2022-11-09 00:59:00+00:00,351.2496,11.3,12.65,47.84626,-54.09684
2022-11-09 01:09:00+00:00,349.8829,11.3,12.65,47.84626,-54.09684
2022-11-09 01:19:00+00:00,351.8096,11.29,12.65,47.84626,-54.09684
2022-11-09 01:29:00+00:00,347.1579,11.3,12.65,47.84626,-54.09684
2022-11-09 01:39:00+00:00,341.0396,11.28,12.65,47.84626,-54.09684
2022-11-09 01:49:00+00:00,339.7146,11.21,12.65,47.84626,-54.09684
2022-11-09 01:59:00+00:00,337.1880000000001,11.2,12.65,47.84626,-54.09684
2022-11-09 02:09:00+00:00,322.098,11.2,12.65,47.84626,-54.09684
2022-11-09 02:19:00+00:00,321.3796,11.2,12.57,47.84626,-54.09684
2022-11-09 02:29:00+00:00,318.9514,11.2,12.57,47.84626,-54.09684
2022-11-09 02:39:00+00:00,302.5047,11.2,12.57,47.84626,-54.09684
2022-11-09 02:49:00+00:00,290.1997,11.2,12.57,47.84626,-54.09684
2022-11-09 02:59:00+00:00,294.653,11.2,12.57,47.84626,-54.09684
2022-11-09 03:09:00+00:00,285.0181,11.2,12.57,47.84626,-54.09684
2022-11-09 03:19:00+00:00,267.6814,11.18,12.57,47.84626,-54.09684
2022-11-09 03:29:00+00:00,265.1481,11.2,12.57,47.84626,-54.09684
2022-11-09 03:39:00+00:00,266.1064,11.2,12.57,47.84626,-54.09684
2022-11-09 03:49:00+00:00,252.4931,11.15,12.57,47.84626,-54.09684
2022-11-09 03:59:00+00:00,240.0098,11.14,12.57,47.84626,-54.09684
2022-11-09 04:09:00+00:00,240.1748,11.12,12.57,47.84626,-54.09684
2022-11-09 04:19:01+00:00,233.5531,11.1,12.57,47.84626,-54.09684
2022-11-09 04:29:01+00:00,221.4015,11.1,12.57,47.84626,-54.09684
2022-11-09 04:39:01+00:00,220.6281,11.1,12.57,47.84626,-54.09684
2022-11-09 04:49:01+00:00,225.1631,11.1,12.57,47.84626,-54.09684
2022-11-09 04:59:01+00:00,219.0814,11.1,12.57,47.84626,-54.09684
2022-11-09 05:09:01+00:00,214.4097,11.1,12.57,47.84626,-54.09684
2022-11-09 05:19:01+00:00,219.5614,11.1,12.57,47.84626,-54.09684
2022-11-09 05:29:01+00:00,222.7948,11.09,12.57,47.84626,-54.09684
2022-11-09 05:39:01+00:00,222.3764,11.06,12.57,47.84626,-54.09684
2022-11-09 05:49:01+00:00,222.7331,11.0,12.57,47.84626,-54.09684
2022-11-09 05:59:01+00:00,226.7964,11.0,12.57,47.84626,-54.09684
2022-11-09 06:09:01+00:00,230.0698,11.0,12.57,47.84626,-54.09684
2022-11-09 06:19:00+00:00,233.2981,11.0,12.57,47.84626,-54.09684
2022-11-09 06:29:00+00:00,238.6364,11.0,12.57,47.84626,-54.09684
2022-11-09 06:39:00+00:00,241.7531,11.0,12.57,47.84626,-54.09684
2022-11-09 06:49:00+00:00,246.6998,10.99,12.57,47.84626,-54.09684
2022-11-09 06:59:00+00:00,250.8947,10.97,12.57,47.84626,-54.09684
2022-11-09 07:09:00+00:00,255.8731,10.95,12.57,47.84626,-54.09684
2022-11-09 07:19:01+00:00,261.3414,10.95,12.49,47.84626,-54.09684
2022-11-09 07:29:01+00:00,269.6248,10.95,12.49,47.84626,-54.09684
2022-11-09 07:39:01+00:00,275.2731,10.81,12.49,47.84626,-54.09684
2022-11-09 07:49:01+00:00,279.0164,10.9,12.49,47.84626,-54.09684
2022-11-09 07:59:01+00:00,281.6214,10.82,12.49,47.84626,-54.09684
2022-11-09 08:09:01+00:00,284.9081,10.8,12.49,47.84626,-54.09684
2022-11-09 08:19:00+00:00,289.7247,10.8,12.49,47.84626,-54.09684
2022-11-09 08:29:00+00:00,294.3947,10.8,12.49,47.84626,-54.09684
2022-11-09 08:39:00+00:00,299.1114,10.8,12.49,47.84626,-54.09684
2022-11-09 08:49:00+00:00,309.553,10.8,12.49,47.84626,-54.09684
2022-11-09 08:59:00+00:00,317.0397,10.79,12.49,47.84626,-54.09684
2022-11-09 09:09:00+00:00,322.1297,10.8,12.49,47.84626,-54.09684
2022-11-09 09:19:00+00:00,327.9263,10.84,12.49,47.84626,-54.09684
2022-11-09 09:29:00+00:00,336.3947,10.9,12.49,47.84626,-54.09684
2022-11-09 09:39:00+00:00,343.0479,10.93,12.49,47.84626,-54.09684
2022-11-09 09:49:00+00:00,349.038,10.96,12.49,47.84626,-54.09684
2022-11-09 09:59:00+00:00,359.3147,10.99,12.49,47.84626,-54.09684
2022-11-09 10:09:00+00:00,365.6595,11.0,12.49,47.84626,-54.09684
2022-11-09 10:19:00+00:00,372.2646,11.0,12.57,47.84626,-54.09684
2022-11-09 10:29:00+00:00,381.2247,11.0,12.57,47.84626,-54.09684
2022-11-09 10:39:00+00:00,388.0546,11.0,12.57,47.84626,-54.09684
2022-11-09 10:49:00+00:00,394.5479,11.0,12.57,47.84626,-54.09684
2022-11-09 10:59:00+00:00,402.3112,11.0,12.57,47.84626,-54.09684
2022-11-09 11:09:00+00:00,409.6162,11.0,12.57,47.84626,-54.09684
2022-11-09 11:19:00+00:00,409.5128,11.0,12.57,47.84626,-54.09684
2022-11-09 11:29:00+00:00,409.8661,10.97,12.57,47.84626,-54.09684
2022-11-09 11:39:00+00:00,416.3012,10.96,12.57,47.84626,-54.09684
2022-11-09 11:49:00+00:00,417.7279,10.9,12.57,47.84626,-54.09684
2022-11-09 11:59:00+00:00,415.9863,10.9,12.57,47.84626,-54.09684
2022-11-09 12:09:00+00:00,416.3912,10.9,12.57,47.84626,-54.09684
2022-11-09 12:19:00+00:00,417.8812,10.9,13.05,47.84626,-54.09684
2022-11-09 12:29:00+00:00,415.4128,10.87,13.05,47.84626,-54.09684
2022-11-09 12:39:00+00:00,410.8445,10.83,13.05,47.84626,-54.09684
2022-11-09 12:49:00+00:00,410.6679,10.8,13.05,47.84626,-54.09684
2022-11-09 12:59:00+00:00,407.3913,10.79,13.05,47.84626,-54.09684
2022-11-09 13:09:00+00:00,402.0197,10.7,13.05,47.84626,-54.09684
2022-11-09 13:19:00+00:00,397.8113,10.7,14.88,47.84626,-54.09684
2022-11-09 13:29:00+00:00,395.2029,10.7,14.88,47.84626,-54.09684
2022-11-09 13:39:00+00:00,391.7296,10.69,14.88,47.84626,-54.09684
2022-11-09 13:49:00+00:00,386.4929,10.69,14.88,47.84626,-54.09684
2022-11-09 13:59:00+00:00,382.7662,10.66,14.88,47.84626,-54.09684
2022-11-09 14:09:00+00:00,374.8245,10.62,14.88,47.84626,-54.09684
2022-11-09 14:19:01+00:00,366.4563,10.6,13.37,47.84626,-54.09684
2022-11-09 14:29:01+00:00,358.543,10.6,13.37,47.84626,-54.09684
2022-11-09 14:39:01+00:00,350.0046,10.6,13.37,47.84626,-54.09684
2022-11-09 14:49:01+00:00,341.1929,10.6,13.37,47.84626,-54.09684
2022-11-09 14:59:01+00:00,335.0046,10.6,13.37,47.84626,-54.09684
2022-11-09 15:09:01+00:00,324.3363,10.69,13.37,47.84626,-54.09684
2022-11-09 15:19:00+00:00,312.7413,10.69,13.53,47.84626,-54.09684
2022-11-09 15:29:00+00:00,304.908,10.7,13.53,47.84626,-54.09684
2022-11-09 15:39:00+00:00,298.5814,10.7,13.53,47.84626,-54.09684
2022-11-09 15:49:00+00:00,286.2831,10.69,13.53,47.84626,-54.09684
2022-11-09 15:59:00+00:00,273.0214,10.68,13.53,47.84626,-54.09684
2022-11-09 16:09:00+00:00,266.3281,10.6,13.53,47.84626,-54.09684
2022-11-09 16:19:00+00:00,257.2097,10.67,13.29,47.84626,-54.09684
2022-11-09 16:29:00+00:00,246.1748,10.68,13.29,47.84626,-54.09684
2022-11-09 16:39:00+00:00,235.7281,10.66,13.29,47.84626,-54.09684
2022-11-09 16:49:00+00:00,231.8598,10.69,13.29,47.84626,-54.09684
2022-11-09 16:59:00+00:00,228.0298,10.7,13.29,47.84626,-54.09684
2022-11-09 17:09:00+00:00,219.7948,10.6,13.29,47.84626,-54.09684
2022-11-09 17:19:01+00:00,215.9597,10.59,14.16,47.84626,-54.09684
2022-11-09 17:29:01+00:00,215.4948,10.6,14.16,47.84626,-54.09684
2022-11-09 17:39:01+00:00,209.9848,10.6,14.16,47.84626,-54.09684
2022-11-09 17:49:01+00:00,205.1515,10.57,14.16,47.84626,-54.09684
2022-11-09 17:59:01+00:00,205.8114,10.5,14.16,47.84626,-54.09684
2022-11-09 18:09:01+00:00,205.7231,10.45,14.16,47.84626,-54.09684
2022-11-09 18:19:00+00:00,204.8531,10.4,13.05,47.84626,-54.09684
2022-11-09 18:29:00+00:00,207.6714,10.4,13.05,47.84626,-54.09684
2022-11-09 18:39:00+00:00,210.3848,10.4,13.05,47.84626,-54.09684
2022-11-09 18:49:00+00:00,212.4348,10.43,13.05,47.84626,-54.09684
2022-11-09 18:59:00+00:00,213.1714,10.4,13.05,47.84626,-54.09684
2022-11-09 19:09:00+00:00,213.0881,10.4,13.05,47.84626,-54.09684
2022-11-09 19:19:00+00:00,219.0531,10.39,12.81,47.84626,-54.09684
2022-11-09 19:29:00+00:00,226.2315,10.4,12.81,47.84626,-54.09684
2022-11-09 19:39:00+00:00,225.7715,10.4,12.81,47.84626,-54.09684
2022-11-09 19:49:00+00:00,225.5798,10.39,12.81,47.84626,-54.09684
2022-11-09 19:59:00+00:00,234.8865,10.4,12.81,47.84626,-54.09684
2022-11-09 20:09:00+00:00,238.9097,10.47,12.81,47.84626,-54.09684
2022-11-09 20:19:00+00:00,237.8481,10.5,12.65,47.84626,-54.09684
2022-11-09 20:29:00+00:00,244.5348,10.49,12.65,47.84626,-54.09684
2022-11-09 20:39:00+00:00,250.5131,10.49,12.65,47.84626,-54.09684
2022-11-09 20:49:00+00:00,251.9848,10.49,12.65,47.84626,-54.09684
2022-11-09 20:59:00+00:00,254.6181,10.44,12.65,47.84626,-54.09684
2022-11-09 21:09:00+00:00,263.9131,10.4,12.65,47.84626,-54.09684
2022-11-09 21:19:01+00:00,270.8247,10.3,12.65,47.84626,-54.09684
2022-11-09 21:29:01+00:00,273.313,10.2,12.65,47.84626,-54.09684
2022-11-09 21:39:01+00:00,278.2014,10.2,12.65,47.84626,-54.09684
2022-11-09 21:49:01+00:00,286.8447,10.2,12.65,47.84626,-54.09684
2022-11-09 21:59:01+00:00,294.4014,10.2,12.65,47.84626,-54.09684
2022-11-09 22:09:01+00:00,297.9313,10.2,12.65,47.84626,-54.09684
2022-11-09 22:19:00+00:00,303.8563,10.2,12.65,47.84626,-54.09684
2022-11-09 22:29:00+00:00,311.8297,10.2,12.65,47.84626,-54.09684
2022-11-09 22:39:00+00:00,319.5514,10.19,12.65,47.84626,-54.09684
2022-11-09 22:49:00+00:00,325.5696,10.1,12.65,47.84626,-54.09684
2022-11-09 22:59:00+00:00,329.5381,10.1,12.65,47.84626,-54.09684
2022-11-09 23:09:00+00:00,336.18300000000005,10.1,12.65,47.84626,-54.09684
2022-11-09 23:19:00+00:00,343.8579,10.1,12.65,47.84626,-54.09684
2022-11-09 23:29:00+00:00,350.3146,10.1,12.65,47.84626,-54.09684
2022-11-09 23:39:00+00:00,351.3496,10.13,12.65,47.84626,-54.09684
2022-11-09 23:49:00+00:00,350.4963,10.2,12.65,47.84626,-54.09684
2022-11-09 23:59:00+00:00,350.8246,10.23,12.65,47.84626,-54.09684
